Preview of NWS' New Version of Forecast
This preview is not operational and should not be used for support decisions.

Regional Weather Roundup (RWR)

Issued by National Weather Service (NWS)

                            
000
ASUS44 KMEG 181000
RWRTN 
TENNESSEE HOURLY STATE WEATHER ROUNDUP
NATIONAL WEATHER SERVICE MEMPHIS TN
400 AM CST MON FEB 18 2019

TNZ002-004-019-021-049-052-054-088>092-181100-
WEST TENNESSEE
  
CITY           SKY/WX    TMP DP  RH WIND       PRES   REMARKS
MEMPHIS INTL   CLOUDY    33  24  69 N9        30.20R WCI  25          
NWS MEMPHIS      N/A     32 N/A N/A MISG        N/A                   
JACKSON        FAIR      32  26  78 NW7       30.20R WCI  26          
DYERSBURG      FAIR      32  24  72 NW9       30.22R WCI  24          
$$

TNZ008-025-027-028-033-062-065-066-181100-
NORTH MIDDLE TENNESSEE
  
CITY           SKY/WX    TMP DP  RH WIND       PRES   REMARKS
NASHVILLE      CLOUDY    37  27  67 NW12      30.13R WCI  29          
CLARKSVILLE    FAIR      32  23  69 W8        30.15R WCI  25          
SMYRNA         CLOUDY    37  31  78 NW13      30.13R WCI  29          
CROSSVILLE     CLOUDY    37  33  85 NW9       30.04R WCI  30          
$$

TNZ061-075-076-078-094-096-097-181100-
SOUTH MIDDLE TENNESSEE
  
CITY           SKY/WX    TMP DP  RH WIND       PRES   REMARKS
$$

TNZ017-018-042-046-047-181100-
NORTHEAST TENNESSEE
  
CITY           SKY/WX    TMP DP  RH WIND       PRES   REMARKS
TRI CITIES     CLOUDY    46  43  89 W15       29.94R                  
$$

TNZ012-013-036-069-073-074-181100-
CENTRAL EAST TENNESSEE
  
CITY           SKY/WX    TMP DP  RH WIND       PRES   REMARKS
KNOXVILLE      MOCLDY    44  41  89 W7        30.01R                  
OAK RIDGE      FAIR      43  41  93 W6        30.03R                  
$$

TNZ083-085-099-181100-
SOUTHEAST TENNESSEE
  
CITY           SKY/WX    TMP DP  RH WIND       PRES   REMARKS
CHATTANOOGA    CLOUDY    46  40  79 NW7       30.05R                  
$$

SKY/WX REPORTED AS FAIR MEANS FEW OR NO CLOUDS BELOW
12 THOUSAND FEET.